| time (UTC) | temp C | wind direction | speed KPH | gust KPH | rain 1hr cm | rain 24hr cm | rain mn cm | humidity % | barometer mb |
| 20260505223554 | 13 | 0.0 | 0.0 | 0.00 | 1.50 | 0.00 | 99 | 1012.8 | |
| 20260505222618 | 13 | 0.0 | 0.0 | 0.00 | 1.50 | 0.00 | 99 | 1012.9 | |
| 20260505221538 | 13 | 43 | 0.0 | 1.6 | 0.00 | 1.50 | 0.00 | 99 | 1013.0 |
| 20260505220601 | 13 | 0.0 | 0.0 | 0.00 | 1.50 | 0.00 | 99 | 1013.1 | |
| 20260505215521 | 13 | 74 | 1.6 | 3.2 | 0.03 | 1.50 | 1.50 | 99 | 1013.1 |
| 20260505214546 | 13 | 76 | 1.6 | 3.2 | 0.03 | 1.50 | 1.50 | 99 | 1013.2 |
| 20260505213609 | 13 | 74 | 0.0 | 1.6 | 0.10 | 1.50 | 1.50 | 99 | 1013.3 |
| 20260505212529 | 13 | 0.0 | 0.0 | 0.25 | 1.50 | 1.50 | 99 | 1013.6 | |
| 20260505211613 | 13 | 73 | 0.0 | 3.2 | 0.46 | 1.50 | 1.50 | 99 | 1013.5 |
| 20260505210617 | 13 | 343 | 0.0 | 1.6 | 0.48 | 1.50 | 1.50 | 99 | 1013.6 |
| 20260505205638 | 13 | 0.0 | 0.0 | 0.46 | 1.47 | 1.47 | 99 | 1013.7 | |
| 20260505204602 | 13 | 0.0 | 0.0 | 0.48 | 1.47 | 1.47 | 99 | 1013.8 | |
| 20260505203541 | 13 | 0.0 | 0.0 | 0.41 | 1.40 | 1.40 | 99 | 1013.6 | |
| 20260505202545 | 13 | 84 | 1.6 | 3.2 | 0.28 | 1.24 | 1.24 | 99 | 1013.8 |
| 20260505201609 | 13 | 87 | 3.2 | 4.8 | 0.08 | 1.04 | 1.04 | 99 | 1013.8 |
| 20260505200529 | 13 | 90 | 3.2 | 3.2 | 0.05 | 1.02 | 1.02 | 99 | 1013.9 |
| 20260505195554 | 13 | 82 | 1.6 | 4.8 | 0.08 | 1.02 | 1.02 | 99 | 1013.6 |
| 20260505194638 | 13 | 109 | 3.2 | 4.8 | 0.05 | 0.99 | 0.99 | 99 | 1013.6 |
| 20260505193538 | 13 | 87 | 4.8 | 4.8 | 0.05 | 0.99 | 0.99 | 99 | 1013.6 |
| 20260505192601 | 13 | 101 | 1.6 | 3.2 | 0.03 | 0.97 | 0.97 | 99 | 1013.6 |
| 20260505191521 | 13 | 99 | 3.2 | 4.8 | 0.03 | 0.97 | 0.97 | 99 | 1013.5 |
| 20260505190546 | 13 | 92 | 1.6 | 3.2 | 0.03 | 0.97 | 0.97 | 99 | 1013.3 |
| 20260505185629 | 13 | 71 | 1.6 | 3.2 | 0.00 | 0.94 | 0.94 | 99 | 1013.2 |
| 20260505184530 | 13 | 73 | 1.6 | 3.2 | 0.00 | 0.94 | 0.94 | 99 | 1013.1 |
| 20260505183614 | 13 | 98 | 3.2 | 3.2 | 0.03 | 0.94 | 0.94 | 99 | 1013.2 |
| 20260505182618 | 13 | 88 | 1.6 | 4.8 | 0.03 | 0.94 | 0.94 | 99 | 1013.2 |
| 20260505181538 | 13 | 84 | 3.2 | 8.0 | 0.03 | 0.94 | 0.94 | 99 | 1013.2 |
| 20260505180601 | 13 | 97 | 6.4 | 9.7 | 0.03 | 0.94 | 0.94 | 99 | 1013.2 |
| 20260505175522 | 13 | 93 | 6.4 | 9.7 | 0.03 | 0.94 | 0.94 | 99 | 1013.3 |
| 20260505174546 | 13 | 109 | 9.7 | 14.5 | 0.03 | 0.94 | 0.94 | 99 | 1013.2 |
| 20260505173611 | 13 | 102 | 6.4 | 11.3 | 0.00 | 0.91 | 0.91 | 99 | 1013.1 |
| 20260505172550 | 13 | 88 | 3.2 | 11.3 | 0.03 | 0.91 | 0.91 | 99 | 1013.1 |
| 20260505171554 | 13 | 71 | 1.6 | 8.0 | 0.05 | 0.91 | 0.91 | 99 | 1013.3 |
| 20260505170618 | 13 | 118 | 6.4 | 9.7 | 0.05 | 0.91 | 0.91 | 99 | 1013.3 |
| 20260505165538 | 13 | 122 | 6.4 | 9.7 | 0.05 | 0.91 | 0.91 | 99 | 1013.3 |
| 20260505164603 | 13 | 116 | 6.4 | 11.3 | 0.05 | 0.91 | 0.91 | 99 | 1013.4 |
| 20260505163603 | 13 | 100 | 8.0 | 11.3 | 0.05 | 0.91 | 0.91 | 99 | 1013.3 |
| 20260505162547 | 13 | 95 | 6.4 | 9.7 | 0.03 | 0.89 | 0.89 | 99 | 1013.4 |
| 20260505161610 | 13 | 118 | 6.4 | 11.3 | 0.03 | 0.86 | 0.86 | 99 | 1013.5 |
| 20260505160530 | 13 | 107 | 8.0 | 14.5 | 0.03 | 0.86 | 0.86 | 99 | 1013.4 |
| 20260505152532 | 13 | 115 | 8.0 | 11.3 | 0.03 | 0.86 | 0.86 | 99 | 1013.6 |
| 20260505151629 | 13 | 106 | 11.3 | 16.1 | 0.00 | 0.84 | 0.84 | 99 | 1013.7 |
| 20260505150531 | 13 | 94 | 9.7 | 12.9 | 0.00 | 0.84 | 0.84 | 99 | 1013.7 |
| 20260505140530 | 14 | 80 | 6.4 | 9.7 | 0.00 | 0.84 | 0.84 | 99 | 1013.7 |
| 20260505124530 | 13 | 59 | 3.2 | 9.7 | 0.00 | 0.84 | 0.84 | 99 | 1014.2 |
| 20260505123555 | 13 | 90 | 4.8 | 8.0 | 0.00 | 0.84 | 0.84 | 99 | 1014.2 |
| 20260505122618 | 13 | 60 | 4.8 | 9.7 | 0.00 | 0.84 | 0.84 | 99 | 1014.2 |
| 20260505121537 | 13 | 61 | 6.4 | 11.3 | 0.00 | 0.84 | 0.84 | 99 | 1014.0 |
| 20260505120546 | 13 | 58 | 1.6 | 8.0 | 0.00 | 0.84 | 0.84 | 99 | 1014.0 |
| 20260505115610 | 13 | 25 | 6.4 | 9.7 | 0.00 | 0.84 | 0.84 | 99 | 1014.2 |
| 20260505114530 | 13 | 15 | 4.8 | 8.0 | 0.00 | 0.84 | 0.84 | 99 | 1014.1 |
| 20260505113614 | 13 | 37 | 4.8 | 9.7 | 0.00 | 0.84 | 0.84 | 99 | 1014.3 |
| 20260505112618 | 13 | 30 | 1.6 | 8.0 | 0.00 | 0.84 | 0.84 | 99 | 1014.3 |
| 20260505111538 | 12 | 16 | 3.2 | 9.7 | 0.03 | 0.84 | 0.84 | 99 | 1014.4 |
| 20260505110602 | 13 | 15 | 1.6 | 4.8 | 0.08 | 0.84 | 0.84 | 99 | 1014.5 |
| 20260505101614 | 12 | 26 | 3.2 | 4.8 | 0.23 | 0.81 | 0.81 | 99 | 1014.4 |
| 20260505100618 | 12 | 33 | 3.2 | 4.8 | 0.18 | 0.76 | 0.76 | 99 | 1014.5 |
| 20260505095539 | 12 | 328 | 1.6 | 4.8 | 0.15 | 0.71 | 0.71 | 99 | 1014.5 |
| 20260505094604 | 12 | 341 | 1.6 | 3.2 | 0.13 | 0.66 | 0.66 | 99 | 1014.5 |
| 20260505093522 | 12 | 334 | 3.2 | 3.2 | 0.08 | 0.61 | 0.61 | 99 | 1014.4 |
| 20260505092546 | 12 | 360 | 1.6 | 4.8 | 0.08 | 0.61 | 0.61 | 99 | 1014.3 |
| 20260505091554 | 12 | 2 | 1.6 | 3.2 | 0.05 | 0.58 | 0.58 | 99 | 1014.2 |
| 20260505090618 | 12 | 326 | 1.6 | 4.8 | 0.05 | 0.58 | 0.58 | 99 | 1014.3 |
| 20260505085538 | 12 | 340 | 1.6 | 3.2 | 0.03 | 0.56 | 0.56 | 99 | 1014.0 |
| 20260505084546 | 13 | 15 | 1.6 | 1.6 | 0.00 | 0.53 | 0.53 | 99 | 1013.9 |
| 20260505083610 | 13 | 79 | 1.6 | 3.2 | 0.00 | 0.53 | 0.53 | 99 | 1014.1 |
| 20260505082530 | 12 | 60 | 1.6 | 4.8 | 0.03 | 0.53 | 0.53 | 99 | 1013.9 |
| 20260505081614 | 12 | 70 | 1.6 | 3.2 | 0.05 | 0.53 | 0.53 | 99 | 1014.0 |
| 20260505080618 | 12 | 39 | 3.2 | 8.0 | 0.08 | 0.53 | 0.53 | 99 | 1014.1 |
| 20260505075522 | 13 | 19 | 3.2 | 8.0 | 0.15 | 0.53 | 0.53 | 99 | 1014.0 |
| 20260505074547 | 12 | 43 | 1.6 | 4.8 | 0.23 | 0.53 | 0.53 | 99 | 1013.9 |
| 20260505073613 | 12 | 34 | 3.2 | 4.8 | 0.30 | 0.53 | 0.53 | 99 | 1013.6 |
| 20260505072530 | 12 | 40 | 1.6 | 3.2 | 0.33 | 0.51 | 0.51 | 99 | 1013.7 |
| 20260505071554 | 12 | 67 | 1.6 | 3.2 | 0.33 | 0.48 | 0.48 | 99 | 1013.8 |
| 20260505070619 | 12 | 0.0 | 0.0 | 0.36 | 0.46 | 0.46 | 99 | 1013.8 | |
| 20260505065631 | 12 | 0.0 | 0.0 | 0.36 | 0.38 | 0.38 | 99 | 1014.0 | |
| 20260505064618 | 12 | 305 | 0.0 | 1.6 | 0.30 | 0.30 | 0.30 | 99 | 1013.9 |
| 20260505063523 | 12 | 0.0 | 0.0 | 0.23 | 0.23 | 0.23 | 99 | 1013.9 | |
| 20260505062547 | 12 | 299 | 1.6 | 4.8 | 0.18 | 0.18 | 0.18 | 99 | 1014.0 |
| 20260505061554 | 13 | 289 | 0.0 | 1.6 | 0.15 | 0.15 | 0.15 | 99 | 1013.8 |
| 20260505060619 | 13 | 316 | 1.6 | 3.2 | 0.10 | 0.10 | 0.10 | 99 | 1013.9 |
| 20260505055538 | 14 | 338 | 0.0 | 1.6 | 0.03 | 0.03 | 0.03 | 99 | 1013.9 |
| 20260505054602 | 14 | 189 | 0.0 | 1.6 | 0.00 | 0.00 | 0.00 | 99 | 1013.7 |
| 20260505053525 | 14 | 282 | 3.2 | 8.0 | 0.00 | 0.00 | 0.00 | 99 | 1013.6 |
| 20260505052546 | 15 | 340 | 1.6 | 3.2 | 0.00 | 0.00 | 0.00 | 99 | 1013.5 |
| 20260505051610 | 15 | 183 | 3.2 | 4.8 | 0.00 | 0.00 | 0.00 | 99 | 1013.4 |
| 20260505050530 | 15 | 239 | 1.6 | 4.8 | 0.00 | 0.00 | 0.00 | 99 | 1013.3 |
| 20260505041538 | 15 | 340 | 0.0 | 3.2 | 0.00 | 0.00 | 0.00 | 99 | 1013.0 |
| 20260505040602 | 15 | 0.0 | 0.0 | 0.00 | 0.00 | 0.00 | 99 | 1013.0 | |
| 20260505035522 | 15 | 344 | 0.0 | 1.6 | 0.00 | 0.00 | 0.00 | 99 | 1013.0 |
| 20260505034530 | 15 | 350 | 0.0 | 1.6 | 0.00 | 0.00 | 0.00 | 99 | 1012.9 |
| 20260505033554 | 15 | 308 | 0.0 | 1.6 | 0.00 | 0.00 | 0.00 | 99 | 1013.2 |
| 20260505032638 | 15 | 345 | 0.0 | 1.6 | 0.00 | 0.00 | 0.00 | 99 | 1013.3 |
| 20260505031558 | 15 | 105 | 0.0 | 1.6 | 0.00 | 0.00 | 0.00 | 99 | 1013.4 |
| 20260505030602 | 15 | 154 | 0.0 | 1.6 | 0.00 | 0.00 | 0.00 | 99 | 1013.5 |
| 20260505025611 | 15 | 333 | 1.6 | 1.6 | 0.00 | 0.00 | 0.00 | 99 | 1013.5 |
| 20260505024550 | 15 | 0.0 | 0.0 | 0.00 | 0.00 | 0.00 | 99 | 1013.7 | |
| 20260505023650 | 15 | 96 | 0.0 | 1.6 | 0.00 | 0.00 | 0.00 | 99 | 1013.9 |
| 20260505022530 | 15 | 126 | 1.6 | 3.2 | 0.00 | 0.00 | 0.00 | 99 | 1013.9 |
| 20260505021554 | 15 | 347 | 0.0 | 1.6 | 0.00 | 0.00 | 0.00 | 99 | 1014.0 |
| 20260505020618 | 15 | 3 | 0.0 | 1.6 | 0.00 | 0.00 | 0.00 | 99 | 1014.0 |
| 20260505015522 | 15 | 0.0 | 0.0 | 0.00 | 0.00 | 0.00 | 99 | 1014.1 | |
| 20260505014546 | 15 | 305 | 1.6 | 4.8 | 0.00 | 0.00 | 0.00 | 99 | 1014.1 |
| 20260505013610 | 15 | 329 | 1.6 | 3.2 | 0.00 | 0.00 | 0.00 | 99 | 1014.2 |
| 20260505012530 | 15 | 345 | 3.2 | 8.0 | 0.00 | 0.00 | 0.00 | 99 | 1014.5 |
| 20260505011554 | 16 | 339 | 1.6 | 4.8 | 0.00 | 0.00 | 0.00 | 99 | 1014.8 |
| 20260505010618 | 16 | 83 | 1.6 | 3.2 | 0.00 | 0.00 | 0.00 | 99 | 1014.8 |
| 20260505005538 | 16 | 253 | 1.6 | 4.8 | 0.00 | 0.00 | 0.00 | 99 | 1014.9 |
| 20260505004546 | 16 | 294 | 1.6 | 1.6 | 0.00 | 0.00 | 0.00 | 99 | 1015.1 |
| 20260505003610 | 16 | 332 | 1.6 | 3.2 | 0.00 | 0.00 | 0.00 | 99 | 1015.2 |
| 20260505002530 | 16 | 289 | 1.6 | 4.8 | 0.00 | 0.00 | 0.00 | 99 | 1015.4 |
| 20260505001634 | 16 | 0.0 | 0.0 | 0.00 | 0.00 | 0.00 | 99 | 1015.5 | |
| 20260505000638 | 16 | 0.0 | 0.0 | 0.00 | 0.00 | 0.00 | 99 | 1015.7 | |
| 20260504235558 | 16 | 0.0 | 0.0 | 0.00 | 0.00 | 0.00 | 99 | 1015.8 | |
| 20260504234602 | 16 | 0.0 | 0.0 | 0.00 | 0.00 | 0.00 | 99 | 1015.9 | |
| 20260504233542 | 16 | 0.0 | 0.0 | 0.00 | 0.00 | 0.00 | 99 | 1016.0 | |
| 20260504232546 | 16 | 0.0 | 0.0 | 0.00 | 0.00 | 0.00 | 99 | 1016.3 | |
| 20260504231610 | 16 | 0.0 | 0.0 | 0.00 | 0.00 | 0.00 | 99 | 1016.4 | |
| 20260504230530 | 16 | 0.0 | 0.0 | 0.00 | 0.00 | 0.00 | 99 | 1016.4 | |
| 20260504225538 | 16 | 0.0 | 0.0 | 0.00 | 0.00 | 0.00 | 99 | 1016.4 | |
| 20260504224602 | 16 | 0.0 | 0.0 | 0.00 | 0.00 | 0.00 | 99 | 1016.5 |